Weather in Kastoria

Greece     40°31′20″N   21°15′40″E
temp.,
°C
wind,
m/s
gust,
m/s
humid.,
%
clouds,
%
prec.,
mm/h
press.,
hPa
HPBL,
m
3 march, wed
wed323:00+3nnw22580 0.0 103225
02:00+2nnw22600 0.0 103125
05:00+1nnw22630 0.0 103123
08:00+2nnw12620 0.0 103125
11:00+9wnw12420 0.0 1031436
14:00+13sse12340 0.0 1029843
17:00+12s21370 0.0 1028586
20:00+7ese11500 0.0 102922
4 march, thu
thu423:00+5ese01570 0.0 102922
02:00+4nnw00620 0.0 102822
05:00+3nw11620 0.0 102722
08:00+4nw11610 0.0 102622
11:00+11ssw11440 0.0 1024370
14:00+15sw13340 0.0 10221063
17:00+15w35380 0.0 1020906
20:00+8nw22540 0.0 102127
5 march, fri
fri523:00+6wnw22620 0.0 102125
02:00+5wnw22710 0.0 102122
05:00+3wnw22764 0.0 101922
08:00+4wnw227621 0.0 102041
11:00+11w244224 0.0 1018753
14:00+14wnw342833 0.0 10161676
17:00+12w453999 0.0 1016768
20:00+7wnw2356100 0.0 101831
6 march, sat
sat623:00+7w2264100 0.0 101944
02:00+6wsw2279100 0.2 1019125
05:00+5wnw2279100 0.1 101937
08:00+5w227298 0.1 102098
11:00+10wnw235320 0.0 1021773
14:00+13nw444914 0.0 10201510
17:00+12nw445219 0.1 10201160
20:00+8nnw347441 0.4 102288
7 march, sun
sun723:00+5ne238170 0.1 102480
02:00+4nne247760 0.1 1025144
05:00+4ne237195 0.0 1025194
08:00+3ne227292 0.0 1025186
11:00+6e226396 0.0 1025612
14:00+8ese336497 0.0 1022815
17:00+6sse348396 0.1 1021392
20:00+5sse238897 0.1 1021323